Voltar ao catálogo

COSMOS 2251 DEB

AtivoLEO
NORAD 34635·DEBRIS·🇷🇺 Russia

Lançado Jun 16, 1993 de Plesetsk Cosmodrome

Loading…

Próximas Passagens (próximas 24 horas)

TLE

AtualizadoSource: Space-Track

Época: Sep 14, 2026, 11:29 UTC

1 34635U 93036XG  26257.47892416  .00003706  00000-0  59863-3 0  9995
2 34635  74.0411 256.2576 0032127 256.0911 260.2028 14.71413914772711

Acompanhe COSMOS 2251 DEB em tempo real com AllMySat

Download on the App Store